Location: Slanting_Bridge
(35.6330°N, 80.9830°W)
Time: 10:51:55
(UTC-05:00)

Hamsat - Visible Passes

Search period start: 09 February 2016 00:00
Search period end: 19 February 2016 00:00
Orbit: 588 x 620 km, 97.6° (Epoch: 09 February)

Date Brightness Start Highest point End Pass type
(mag) Time Alt. Az. Time Alt. Az. Time Alt. Az.
09 Feb ? 04:32:45 10° NE 04:35:59 26° E 04:35:59 26° E visible
09 Feb ? 06:08:44 10° NNW 06:12:05 22° WNW 06:12:50 21° W visible
10 Feb ? 04:44:47 10° NNE 04:48:44 37° E 04:48:44 37° E visible
10 Feb ? 06:21:36 10° NNW 06:24:18 16° WNW 06:25:35 15° W visible
11 Feb ? 04:56:56 10° NNE 05:01:11 53° E 05:01:30 52° ESE visible
11 Feb ? 06:34:51 10° NW 06:36:30 12° WNW 06:38:08 10° W visible
12 Feb ? 05:09:11 10° NNE 05:13:32 76° ESE 05:14:15 60° SSE visible
13 Feb ? 05:21:30 10° N 05:25:50 76° WNW 05:26:59 48° SSW visible
14 Feb ? 04:00:54 10° ENE 04:02:02 11° E 04:02:53 10° ESE visible
14 Feb ? 05:33:54 10° N 05:38:07 53° WNW 05:39:44 33° SW visible
15 Feb ? 04:11:53 10° NE 04:14:29 15° E 04:15:37 14° ESE visible
15 Feb ? 05:46:23 10° N 05:50:23 38° WNW 05:52:29 23° SW visible
16 Feb ? 04:23:32 10° NE 04:26:52 21° E 04:28:21 18° ESE visible
16 Feb ? 05:58:57 10° NNW 06:02:37 27° WNW 06:05:12 16° WSW visible
17 Feb ? 04:35:27 10° NE 04:39:16 29° E 04:41:05 21° SE visible
17 Feb ? 06:11:39 10° NNW 06:14:51 20° WNW 06:17:56 10° WSW visible
18 Feb ? 04:47:29 10° NNE 04:51:37 41° E 04:53:49 23° SSE visible
18 Feb ? 06:24:34 10° NNW 06:27:01 15° WNW 06:29:28 10° WSW visible
